Regional Weather Roundup
Issued by NWS

Home | Current Version | Previous Version | Graphics & Text | Print | Product List | Glossary On
Versions: 1 2 3 4 5 6 7 8 9 10 11 12 13 14 15 16 17 18 19 20 21 22 23 24 25 26 27 28 29 30 31 32 33 34 35 36 37 38 39 40 41 42 43 44 45 46 47 48 49 50
387
ASUS44 KJAN 232203
RWRMS

MISSISSIPPI HOURLY WEATHER ROUNDUP
NATIONAL WEATHER SERVICE JACKSON MS
400 PM CST SUN NOV 23 2014

NOTE: "FAIR: INDICATES FEW OR NO CLOUDS BELOW 12,000 FEET WITH NO
SIGNIFICANT WEATHER AND/OR OBSTRUCTIONS TO VISIBILITY.

MSZ001>002-007>008-010>013-018>021-025>028-034>036-232300-
NORTHWEST MISSISSIPPI

CITY           SKY/WX    TMP DP  RH WIND       PRES   REMARKS
CLARKSDALE     MOCLDY    61  61 100 SW13      29.41R
CLEVELAND      CLOUDY    63  62  96 SW15      29.43R
GREENWOOD      CLOUDY    63  60  90 SW13G21   29.47R
GREENVILLE     MOCLDY    65  61  87 SW12      29.43R
GRENADA        CLOUDY    61  59  94 SW9G22    29.45R FOG
OLIVE BRANCH   RAIN      61  59  94 S7        29.34R FOG
OXFORD         CLOUDY    59  57  94 SW22G40   29.39R FOG
TUNICA         LGT RAIN  59  57  94 W10       29.38R
$$

MSZ003>006-009-014>017-022>024-029>033-037>039-232300-
NORTHEAST MISSISSIPPI

CITY           SKY/WX    TMP DP  RH WIND       PRES   REMARKS
COLUMBUS AFB   MOCLDY    66  57  72 S16G22    29.48R
CORINTH        LGT RAIN  64  61  88 SE10      29.33F
GOLDN TRIANGLE MOCLDY    66  57  72 SW20G30   29.48R
STARKVILLE     CLOUDY    64  59  82 SW10G25   29.48R
TUPELO         RAIN      63  59  87 MISG      29.39S FOG
$$

MSZ040-058-232300-
CENTRAL MISSISSIPPI

CITY           SKY/WX    TMP DP  RH WIND       PRES   REMARKS
JACKSON INTL   MOCLDY    70  58  65 S16G25    29.52R
JACKSON HAWKNS CLOUDY    70  58  65 SW15G21   29.53R
MERIDIAN KEY   PTCLDY    67  57  70 S16G26    29.55S
MERIDIAN NAS   MOCLDY    68  57  68 SW10G22   29.55R
RAYMOND        FAIR      72  66  83 SW10G18   29.52R
VICKSBURG      MOSUNNY   70  58  65 SW8G20    29.50R
$$

MSZ059>079-232300-
SOUTH MISSISSIPPI

CITY           SKY/WX    TMP DP  RH WIND       PRES   REMARKS
BROOKHAVEN     FAIR      72  59  64 S15G23    29.56S
HATTIESBURG    CLEAR     72  59  63 S16G25    29.61R
MCCOMB         MOSUNNY   72  57  59 SW14G25   29.59R
NATCHEZ        MOSUNNY   72  57  60 S13G25    29.55R
PINE BELT      PTCLDY    70  57  64 S17G24    29.60R
$$

MSZ080>082-232300-
COASTAL MISSISSIPPI

CITY           SKY/WX    TMP DP  RH WIND       PRES   REMARKS
BILOXI         CLEAR     65  61  86 SW16      29.67R
PASCAGOULA     CLEAR     67  61  81 SW9G17    29.68S
GULFPORT       CLEAR     67  61  81 S10G17    29.66R
$$



USA.gov is the U.S. government's official web portal to all federal, state and local government web resources and services.